#timestamp,LO_Frequency,Hit,StdDev 
1506870015.1,286047000.8,N
1506870016.0,286047000.8,N
1506870035.8,286047001.2,N
1506870055.7,286046998.6,N
1506870075.5,286046998.9,N
1506870095.3,286046999.0,N
1506870115.2,286046998.7,N
1506870135.0,286046998.6,N
1506870135.9,286046998.6,N
1506870155.8,286046998.6,N
1506870175.6,286046998.4,N
1506870195.4,286047000.7,N
1506870215.3,286046998.4,N
1506870235.1,286046999.1,N
1506870255.8,286046998.8,N
1506870275.7,286046998.7,N
1506870295.5,286046998.5,N
1506870315.4,286046998.2,N
1506870335.2,286047000.8,N
1506870355.0,286047000.8,N
1506870355.9,286047000.8,N
1506870375.8,286047000.7,N
1506870395.6,286047000.3,N
1506870415.4,286047000.1,N
1506870435.3,286046998.5,N
1506870455.1,286046998.5,N
1506870475.9,286047001.1,N
1506870495.7,286047000.3,N
1506870515.5,286047000.8,N
1506870535.4,286047001.1,N
1506870555.2,286047000.3,N
1506870575.1,286047000.0,N
1506870576.0,286047000.0,N
1506870595.8,286047001.1,N
1506870615.6,286047000.6,N
1506870635.5,286047001.2,N
1506870655.3,286047001.0,N
1506870675.1,286046998.4,N
1506870695.9,286046998.9,N
1506870715.7,286046998.5,N
1506870735.6,286046998.2,N
1506870755.4,286046998.3,N
1506870775.2,286047000.7,N
1506870795.1,286047001.2,N
1506870796.0,286047001.2,N
1506870815.8,286046998.1,N
1506870835.7,286047001.1,N
1506870855.5,286046998.5,N
1506870875.3,286047000.9,N
1506870895.2,286047000.5,N
1506870915.9,286047000.4,N
1506870935.7,286047001.0,N
1506870955.6,286047000.4,N
1506870975.4,286046998.1,N
1506870995.3,286047000.9,N
1506871015.1,286047000.4,N
1506871016.0,286047000.4,N
1506871035.8,286047002.3,N
1506871055.7,286047002.7,N
1506871075.5,286047000.2,N
1506871095.3,286047000.0,N
1506871115.2,286047002.2,N
1506871135.0,286047002.3,N
1506871135.9,286047002.3,N
1506871155.8,286047002.4,N
1506871175.6,286047002.5,N
1506871195.4,286047004.3,N
1506871215.3,286047001.9,N
1506871235.1,286047001.4,N
1506871255.8,286047003.0,N
1506871275.7,286047003.3,N
1506871295.5,286047003.0,N
1506871315.4,286047003.8,N
1506871335.2,286047003.3,N
1506871355.0,286047003.3,N
1506871355.9,286047003.3,N
1506871375.8,286047003.0,N
1506871395.6,286047003.6,N
1506871415.5,286047002.9,N
1506871435.3,286047005.9,Y
1506871455.1,286047004.4,P
1506871475.9,286047003.7,P
1506871495.7,286047004.2,P
1506871515.6,286047003.7,Y
1506871535.4,286047002.7,P
1506871555.2,286047000.2,N
1506871575.1,286047002.8,N
1506871576.0,286047002.8,N
1506871595.8,286047002.8,N
1506871615.6,286047000.0,N
1506871665.5,286047000.5,E
1506871675.4,286046998.2,N
1506871695.3,286047001.2,P
1506871715.1,286047001.0,N
1506871735.8,286047000.8,N
1506871755.7,286046998.4,N
1506871775.5,286047000.7,N
1506871795.4,286047000.7,N
1506871815.2,286046999.9,N
1506871835.0,286047001.4,N
1506871835.9,286047001.4,N
1506871855.8,286047004.3,Y
1506871875.6,286047002.0,P
1506871895.5,286047002.6,P
1506871915.3,286047002.2,N
1506871935.1,286047002.1,N
1506871955.9,286046999.7,N
1506871975.7,286047002.0,N
1506871995.5,286047002.2,N
1506872015.4,286047002.1,N
1506872035.2,286047001.8,N
1506872055.1,286047002.0,N
1506872056.0,286047002.0,N
1506872075.8,286047002.4,N
1506872095.6,286047001.3,N
1506872115.5,286047001.7,N
1506872135.3,286047003.9,Y
1506872155.1,286047002.1,P
1506872175.9,286047001.6,P
1506872195.7,286047002.3,P
1506872215.6,286047002.4,Y
1506872235.4,286047000.8,P
1506872255.2,286047000.3,N
1506872275.1,286047000.3,N
1506872276.0,286047000.3,N
1506872295.8,286047000.3,N
1506872315.7,286047000.2,N
1506872335.5,286047002.4,Y
1506872355.3,286047000.3,P
1506872375.2,286047000.1,N
1506872395.0,286047001.4,P
1506872395.9,286047001.4,N
1506872415.8,286047004.4,Y
1506872435.6,286047002.4,P
1506872455.4,286047001.9,N
1506872475.3,286047004.3,P
1506872495.1,286047001.8,N
1506872515.8,286047002.5,N
1506872535.7,286047001.6,N
1506872555.5,286047001.5,N
1506872575.4,286047003.6,Y
1506872595.2,286047000.2,P
1506872615.0,286047000.2,N
1506872615.9,286047000.2,N
1506872635.8,286047002.8,Y
1506872655.6,286047000.6,P
1506872675.5,286046998.1,P
1506872695.3,286047001.0,N
1506872715.1,286047002.8,N
1506872735.9,286047002.8,N
1506872755.7,286046999.8,N
1506872775.5,286047000.4,N
1506872795.4,286046999.9,N
1506872815.2,286047000.5,N
1506872835.1,286047000.2,N
1506872836.0,286047000.2,N
1506872855.8,286047001.3,N
1506872875.6,286047001.4,N
1506872895.5,286047001.8,N
1506872915.3,286047001.3,N
1506872935.2,286047004.1,Y
1506872955.9,286047002.1,P
1506872975.7,286047001.5,N
1506872995.6,286047004.0,P
1506873015.4,286047004.0,Y
1506873035.2,286047002.6,P
1506873055.1,286047002.3,P
1506873056.0,286047002.3,P
1506873075.8,286047001.5,Y
1506873095.7,286046998.7,P
1506873115.5,286047001.2,N
1506873135.3,286047000.0,N
1506873155.2,286047000.4,N
1506873175.0,286047001.0,N
1506873175.9,286047001.0,N
1506873195.8,286047000.9,N
1506873215.6,286047001.9,N
1506873235.4,286047001.0,N
1506873255.3,286047000.3,N
1506873275.1,286047000.3,N
1506873295.8,286046999.9,N
1506873315.7,286047000.2,N
1506873335.5,286047001.9,N
1506873355.4,286047001.7,N
1506873375.2,286047004.3,Y
1506873395.0,286047002.8,P
1506873395.9,286047002.8,N
1506873415.8,286047002.1,N
1506873465.6,286047002.0,E
1506873475.6,286047001.6,N
1506873495.4,286047002.5,P
1506873515.2,286047001.6,P
1506873535.1,286047001.6,Y
1506873536.0,286047001.6,P
1506873555.8,286046998.4,P
1506873575.7,286046998.7,N
1506873595.5,286047000.0,N
